Weather History for Pensacola, FL

Change the Weather History Date:

Tuesday, March 5, 2013

  Actual Average Record
Temperature  
Mean Temperature 61 °F 58 °F  
Max Temperature 76 °F 67 °F 80 °F (1974)
Min Temperature 46 °F 49 °F 25 °F (2002)
Degree Days  
Heating Degree Days 4 7  
Month to date heating degree days 77 39  
Since 1 July heating degree days 958 1347  
Cooling Degree Days 0 1  
Month to date cooling degree days 0 4  
Year to date cooling degree days 40 18  
Growing Degree Days 12 (Base 50)    
Moisture  
Dew Point 54 °F    
Average Humidity 71    
Maximum Humidity 93    
Minimum Humidity 49    
Precipitation  
Precipitation T in 0.19 in 3.69 in (1984)
Month to date precipitation T 1.00  
Year to date precipitation 14.27 10.69  
Snow  
Snow 0.00 in 0.00 in - ()
Month to date snowfall 0.0 0.0  
Since 1 July snowfall 0.0 0.0  
Snow Depth 0.00 in    
Sea Level Pressure  
Sea Level Pressure 30.03 in    
Wind  
Wind Speed 12 mph (West)    
Max Wind Speed 32 mph    
Max Gust Speed 43 mph    
Visibility 10 miles    
Events      
T = Trace of Precipitation, MM = Missing Value Source: NWS Daily Summary

Daily Weather History Graph

Daily Weather History Graph

Search for Another Location

Airport:

Trip Planner

Search our weather history database for the weather conditions in past years. The results will help you decide how hot, cold, wet, or windy it might be!

Date:

Astronomy

Mar. 05, 2013 Rise Set
Actual Time 6:10 AM CST 5:50 PM CST
Civil Twilight 5:46 AM CST 6:14 PM CST
Nautical Twilight 5:18 AM CST 6:42 PM CST
Astronomical Twilight 4:50 AM CST 7:10 PM CST
Moon 1:04 AM CST (3/5) 11:47 AM CST (3/5)
Length of Visible Light 12h 28m
Length of Day
11h 40m
Last Quarter, 40% of the Moon is Illuminated
Mar 5
Last Quarter
Mar 11
New
Mar 19
First Quarter
Mar 27
Full
Apr 2
Last Quarter

Hourly Weather History & Observations

Time (CST) Temp. Dew Point Humidity Pressure Visibility Wind Dir Wind Speed Gust Speed Precip Events Conditions
1:53 AM 60.1 °F 55.0 °F 83% 30.01 in 10.0 mi South 5.8 mph - N/A   Clear
2:53 AM 57.0 °F 54.0 °F 89% 30.00 in 10.0 mi South 5.8 mph - N/A   Partly Cloudy
3:53 AM 59.0 °F 55.9 °F 90% 30.01 in 10.0 mi South 3.5 mph - N/A   Clear
4:53 AM 57.9 °F 55.9 °F 93% 30.02 in 10.0 mi Calm Calm - N/A   Scattered Clouds
5:53 AM 57.9 °F 55.9 °F 93% 30.04 in 10.0 mi Calm Calm - N/A   Scattered Clouds
6:53 AM 59.0 °F 57.2 °F 94% 30.03 in 10.0 mi ESE 4.6 mph - N/A   Partly Cloudy
7:53 AM 63.0 °F 59.0 °F 87% 30.04 in 10.0 mi Calm Calm - N/A   Scattered Clouds
8:53 AM 66.9 °F 57.9 °F 73% 30.09 in 10.0 mi West 9.2 mph - N/A   Mostly Cloudy
9:53 AM 70.0 °F 57.9 °F 65% 30.08 in 10.0 mi WSW 11.5 mph - N/A   Partly Cloudy
10:53 AM 71.1 °F 57.9 °F 63% 30.06 in 10.0 mi WSW 17.3 mph 25.3 mph N/A   Scattered Clouds
11:53 AM 73.9 °F 55.0 °F 52% 30.02 in 10.0 mi WSW 23.0 mph 33.4 mph N/A   Partly Cloudy
12:53 PM 73.9 °F 54.0 °F 50% 30.00 in 10.0 mi WSW 25.3 mph 40.3 mph N/A   Mostly Cloudy
1:53 PM 72.0 °F 55.9 °F 57% 29.98 in 10.0 mi WSW 28.8 mph 38.0 mph N/A   Overcast
2:53 PM 72.0 °F 57.9 °F 61% 29.96 in 10.0 mi WSW 19.6 mph 34.5 mph N/A   Mostly Cloudy
3:53 PM 70.0 °F 59.0 °F 68% 29.95 in 10.0 mi WSW 24.2 mph 34.5 mph N/A   Overcast
4:22 PM 69.8 °F 59.0 °F 68% 29.94 in 10.0 mi WSW 20.7 mph 32.2 mph N/A   Overcast
4:43 PM 69.8 °F 60.8 °F 73% 29.94 in 10.0 mi WSW 17.3 mph 25.3 mph N/A   Overcast
4:53 PM 69.1 °F 60.1 °F 73% 29.95 in 10.0 mi SW 12.7 mph 23.0 mph N/A   Overcast
5:53 PM 69.1 °F 60.1 °F 73% 29.98 in 10.0 mi West 16.1 mph 25.3 mph N/A   Overcast
6:53 PM 66.0 °F 55.0 °F 68% 30.01 in 10.0 mi NW 12.7 mph 19.6 mph N/A   Mostly Cloudy
7:00 PM 66.2 °F 51.8 °F 60% 30.01 in 10.0 mi NW 12.7 mph - N/A   Clear
7:53 PM 62.1 °F 45.0 °F 53% 30.05 in 10.0 mi NW 12.7 mph - 0.00 in   Clear
8:53 PM 57.0 °F 42.1 °F 57% 30.09 in 10.0 mi NNW 16.1 mph 27.6 mph N/A   Clear
9:53 PM 53.1 °F 37.0 °F 55% 30.12 in 10.0 mi NNW 12.7 mph 23.0 mph N/A   Clear
10:53 PM 51.1 °F 37.9 °F 61% 30.13 in 10.0 mi NNW 10.4 mph - N/A   Clear
11:53 PM 46.9 °F 37.9 °F 71% 30.14 in 10.0 mi NNW 5.8 mph - N/A   Clear